IU1INZ-13 Weather Reports


time (UTC)temp
C
wind
direction
speed
KPH
gust
KPH
rain 1hr
cm
rain 24hr
cm
rain mn
cm
humidity
%
barometer
mb
20260508013039 13 0 0.0 0.0 0.00 0.00 0.00 84 1014.3
20260508011539 13 0 0.0 0.0 0.00 0.00 0.00 82 1014.5
20260508010046 13 0 0.0 1.6 0.00 0.00 0.00 82 1014.5
20260508004533 13 0 0.0 0.0 0.00 0.00 0.00 83 1014.6
20260508003036 13 0 0.0 0.0 0.00 0.00 0.00 82 1014.5
20260508001538 13 0 0.0 0.0 0.00 0.00 0.00 82 1014.6
20260508000035 13 0 0.0 0.0 0.00 0.00 0.00 82 1014.7
20260507234533 13 0 0.0 0.0 0.00 0.00 0.00 81 1014.8
20260507233040 13 0 0.0 1.6 0.00 0.00 0.00 80 1014.8
20260507231544 14 0 0.0 0.0 0.00 0.00 0.00 77 1014.9
20260507230043 15 34 1.6 3.2 0.00 0.00 0.00 75 1014.7
20260507224534 15 37 1.6 3.2 0.00 0.00 0.00 77 1014.5
20260507223035 14 0 0.0 0.0 0.00 0.00 0.00 78 1014.6
20260507221532 14 0 0.0 3.2 0.00 0.00 0.00 78 1014.5
20260507220032 14 327 1.6 4.8 0.00 0.00 0.00 77 1014.3
20260507214532 14 0 0.0 3.2 0.00 0.00 0.00 78 1014.4
20260507213032 15 327 0.0 6.4 0.00 0.00 0.00 78 1014.3
20260507211539 15 284 0.0 6.4 0.00 0.00 0.00 77 1014.4
20260507210036 15 0 0.0 4.8 0.00 0.00 0.00 76 1014.3
20260507204532 16 0 1.6 9.7 0.00 0.00 0.00 70 1014.3
20260507203036 17 324 3.2 6.4 0.00 0.00 0.00 68 1014.1
20260507201529 17 54 3.2 9.7 0.00 0.00 0.00 68 1014.0
20260507200030 17 48 3.2 6.4 0.00 0.00 0.00 67 1013.8
20260507194533 17 30 4.8 8.0 0.00 0.00 0.00 66 1013.6
20260507193036 18 57 1.6 4.8 0.00 0.00 0.00 64 1013.4
20260507191533 18 0 0.0 0.0 0.00 0.00 0.00 63 1013.2
20260507190031 18 72 0.0 3.2 0.00 0.00 0.00 62 1013.0
20260507184531 18 0 0.0 4.8 0.00 0.00 0.00 60 1012.8
20260507183043 18 65 1.6 4.8 0.00 0.00 0.00 60 1012.6
20260507181539 19 58 3.2 4.8 0.00 0.00 0.00 56 1012.5
20260507180033 19 64 3.2 6.4 0.00 0.00 0.00 55 1012.4
20260507174532 19 73 3.2 8.0 0.00 0.00 0.00 55 1012.4
20260507173031 19 69 3.2 6.4 0.00 0.00 0.00 53 1012.5
20260507171532 20 71 3.2 4.8 0.00 0.00 0.00 53 1012.2
20260507170032 20 64 0.0 3.2 0.00 0.00 0.00 53 1012.2
20260507164536 20 209 1.6 4.8 0.00 0.00 0.00 51 1012.3
20260507163045 20 66 4.8 9.7 0.00 0.00 0.00 52 1012.2
20260507161541 20 63 1.6 6.4 0.00 0.00 0.00 52 1012.3
20260507160047 20 58 4.8 8.0 0.00 0.00 0.00 52 1012.2
20260507154533 21 89 3.2 9.7 0.00 0.00 0.00 51 1012.2
20260507153044 20 216 0.0 8.0 0.00 0.00 0.00 51 1012.1
20260507151538 21 58 4.8 9.7 0.00 0.00 0.00 49 1012.1
20260507150035 21 58 6.4 11.3 0.00 0.00 0.00 49 1012.2
20260507144535 20 93 3.2 8.0 0.00 0.00 0.00 50 1012.2
20260507143043 21 228 3.2 8.0 0.00 0.00 0.00 50 1012.3
20260507141542 20 74 3.2 8.0 0.00 0.00 0.00 51 1012.5
20260507140035 20 82 0.0 6.4 0.00 0.00 0.00 49 1012.7
20260507134541 20 26 3.2 8.0 0.00 0.00 0.00 52 1012.6
20260507133033 20 162 4.8 14.5 0.00 0.00 0.00 51 1012.9
20260507131534 20 51 3.2 9.7 0.00 0.00 0.00 49 1013.0
20260507130032 19 83 0.0 8.0 0.00 0.00 0.00 53 1013.1
20260507124546 19 353 3.2 12.9 0.00 0.00 0.00 54 1013.2
20260507123033 18 60 1.6 8.0 0.00 0.00 0.00 55 1013.3
20260507121534 18 259 1.6 4.8 0.00 0.00 0.00 58 1013.4
20260507120032 18 76 3.2 9.7 0.00 0.00 0.00 57 1013.5
20260507114531 18 59 4.8 12.9 0.00 0.00 0.00 56 1013.6
20260507113035 18 78 4.8 14.5 0.00 0.00 0.00 57 1013.7
20260507111531 18 248 1.6 11.3 0.00 0.00 0.00 56 1013.9
20260507110036 18 255 1.6 6.4 0.00 0.00 0.00 57 1014.0
20260507104530 18 255 3.2 11.3 0.00 0.00 0.00 58 1014.1
20260507103033 18 203 6.4 11.3 0.00 0.00 0.00 60 1014.2
20260507101535 17 66 1.6 11.3 0.00 0.00 0.00 62 1014.3
20260507100037 18 195 1.6 8.0 0.00 0.00 0.00 62 1014.2
20260507094531 17 142 3.2 11.3 0.00 0.00 0.00 63 1014.2
20260507093038 17 153 6.4 11.3 0.00 0.00 0.00 65 1014.3
20260507091539 16 189 6.4 11.3 0.00 0.00 0.00 65 1014.2
20260507090034 16 165 3.2 9.7 0.00 0.00 0.00 68 1014.3
20260507084535 16 212 3.2 8.0 0.00 0.56 0.00 68 1014.1
20260507083030 15 162 1.6 8.0 0.00 0.56 0.00 70 1014.1
20260507081531 16 136 1.6 8.0 0.00 0.56 0.00 70 1014.2
20260507080031 15 189 3.2 8.0 0.00 0.56 0.00 71 1014.0
20260507074537 15 181 3.2 8.0 0.00 0.76 0.00 68 1014.0
20260507073039 16 0 1.6 4.8 0.00 0.76 0.00 68 1014.0
20260507071535 15 0 0.0 1.6 0.00 0.76 0.00 72 1013.9
20260507070035 15 0 0.0 3.2 0.00 0.76 0.00 72 1013.9
20260507064531 15 195 0.0 3.2 0.00 1.14 0.00 73 1013.8
20260507063048 14 0 0.0 3.2 0.00 1.14 0.00 75 1013.7
20260507061535 13 254 0.0 3.2 0.00 1.14 0.00 78 1013.6
20260507060042 11 0 0.0 3.2 0.00 1.14 0.00 83 1013.5
20260507054530 11 260 1.6 3.2 0.00 1.70 0.00 85 1013.5
20260507053032 10 0 0.0 0.0 0.00 1.70 0.00 87 1013.4
20260507051535 10 0 0.0 0.0 0.00 1.70 0.00 86 1013.2
20260507050036 10 0 0.0 0.0 0.00 1.70 0.00 86 1013.0
20260507044542 10 0 0.0 3.2 0.00 1.85 0.00 86 1012.9
20260507043030 10 207 1.6 4.8 0.00 1.85 0.00 86 1012.6
20260507041531 10 262 0.0 1.6 0.00 1.85 0.00 86 1012.3
20260507040035 11 0 0.0 0.0 0.00 1.85 0.00 85 1012.1
20260507034537 11 290 0.0 3.2 0.00 1.91 0.00 86 1012.0
20260507033032 11 0 0.0 3.2 0.00 1.91 0.00 87 1012.1
20260507031532 11 292 1.6 6.4 0.00 1.91 0.00 87 1012.0
20260507030033 10 302 1.6 3.2 0.00 1.91 0.00 88 1012.0
20260507024532 10 0 0.0 1.6 0.00 1.91 0.00 87 1012.1
20260507023035 11 0 0.0 1.6 0.00 1.91 0.00 87 1012.1
20260507021532 11 0 0.0 3.2 0.00 1.91 0.00 86 1012.2
20260507020041 11 288 1.6 6.4 0.00 1.91 0.00 84 1012.2
20260507014530 12 0 1.6 8.0 0.00 1.96 0.00 84 1012.0